TimeCST,TemperatureF,Dew PointF,Humidity,Sea Level PressureIn,VisibilityMPH,Wind Direction,Wind SpeedMPH,Gust SpeedMPH,PrecipitationIn,Events,Conditions,WindDirDegrees,DateUTC
12:14 AM,17.6,8.6,68,30.26,10.0,South,11.5,-,N/A,,Clear,170,2013-01-15 06:14:00
12:33 AM,17.6,8.6,68,30.26,10.0,South,12.7,-,N/A,,Clear,170,2013-01-15 06:33:00
12:53 AM,17.6,8.6,68,30.26,10.0,South,11.5,-,N/A,,Clear,170,2013-01-15 06:53:00
1:13 AM,17.6,8.6,68,30.25,10.0,South,10.4,-,N/A,,Clear,170,2013-01-15 07:13:00
1:33 AM,17.6,8.6,68,30.25,10.0,South,9.2,-,N/A,,Clear,170,2013-01-15 07:33:00
1:54 AM,17.6,8.6,68,30.25,10.0,South,9.2,-,N/A,,Clear,170,2013-01-15 07:54:00
2:14 AM,17.6,6.8,63,30.25,10.0,South,9.2,-,N/A,,Clear,170,2013-01-15 08:14:00
2:33 AM,17.6,8.6,68,30.25,10.0,South,9.2,-,N/A,,Clear,170,2013-01-15 08:33:00
2:53 AM,17.6,8.6,68,30.25,10.0,South,9.2,-,N/A,,Clear,180,2013-01-15 08:53:00
3:14 AM,17.6,8.6,68,30.24,10.0,South,9.2,-,N/A,,Clear,180,2013-01-15 09:14:00
3:33 AM,17.6,8.6,68,30.24,10.0,South,9.2,-,N/A,,Clear,180,2013-01-15 09:33:00
3:53 AM,19.4,8.6,63,30.23,10.0,South,10.4,-,N/A,,Clear,190,2013-01-15 09:53:00
4:14 AM,19.4,8.6,63,30.22,10.0,South,11.5,-,N/A,,Clear,190,2013-01-15 10:14:00
4:33 AM,17.6,6.8,63,30.22,10.0,South,10.4,-,N/A,,Clear,190,2013-01-15 10:33:00
4:53 AM,17.6,6.8,63,30.22,10.0,SSW,9.2,-,N/A,,Clear,200,2013-01-15 10:53:00
5:14 AM,15.8,6.8,68,30.22,10.0,SSW,4.6,-,N/A,,Clear,210,2013-01-15 11:14:00
5:33 AM,15.8,6.8,68,30.22,10.0,South,6.9,-,N/A,,Clear,190,2013-01-15 11:33:00
6:13 AM,17.6,6.8,63,30.22,10.0,South,8.1,-,N/A,,Clear,190,2013-01-15 12:13:00
6:33 AM,17.6,6.8,63,30.21,10.0,South,8.1,-,N/A,,Clear,190,2013-01-15 12:33:00
6:53 AM,15.8,6.8,68,30.21,10.0,South,9.2,-,N/A,,Scattered Clouds,190,2013-01-15 12:53:00
7:13 AM,17.6,8.6,68,30.21,10.0,SSW,8.1,-,N/A,,Mostly Cloudy,200,2013-01-15 13:13:00
7:33 AM,19.4,8.6,63,30.21,10.0,South,6.9,-,N/A,,Overcast,190,2013-01-15 13:33:00
7:53 AM,17.6,8.6,68,30.22,10.0,South,5.8,-,N/A,,Overcast,190,2013-01-15 13:53:00
8:13 AM,17.6,8.6,68,30.21,10.0,SSW,5.8,-,N/A,,Overcast,200,2013-01-15 14:13:00
8:33 AM,17.6,8.6,68,30.21,10.0,South,8.1,-,N/A,,Scattered Clouds,190,2013-01-15 14:33:00
8:53 AM,19.4,8.6,63,30.22,10.0,South,11.5,-,N/A,,Clear,190,2013-01-15 14:53:00
9:13 AM,21.2,10.4,63,30.21,10.0,South,8.1,-,N/A,,Clear,180,2013-01-15 15:13:00
9:34 AM,21.2,10.4,63,30.21,10.0,South,6.9,-,N/A,,Clear,190,2013-01-15 15:34:00
9:53 AM,21.2,12.2,68,30.21,10.0,South,8.1,-,N/A,,Clear,190,2013-01-15 15:53:00
10:13 AM,24.8,12.2,59,30.20,10.0,SSW,8.1,-,N/A,,Clear,200,2013-01-15 16:13:00
10:33 AM,26.6,12.2,55,30.20,10.0,South,8.1,-,N/A,,Clear,190,2013-01-15 16:33:00
10:54 AM,28.4,12.2,51,30.20,10.0,SSW,12.7,-,N/A,,Clear,200,2013-01-15 16:54:00
11:14 AM,28.4,12.2,51,30.20,10.0,SSW,16.1,-,N/A,,Clear,200,2013-01-15 17:14:00
11:33 AM,30.2,14.0,51,30.18,10.0,SSW,15.0,-,N/A,,Clear,210,2013-01-15 17:33:00
11:53 AM,30.2,14.0,51,30.17,10.0,SSW,15.0,-,N/A,,Clear,210,2013-01-15 17:53:00
12:13 PM,30.2,15.8,55,30.15,10.0,SW,15.0,21.9,N/A,,Clear,220,2013-01-15 18:13:00
12:34 PM,30.2,15.8,55,30.14,10.0,SW,16.1,23.0,N/A,,Clear,220,2013-01-15 18:34:00
12:53 PM,32.0,15.8,51,30.13,10.0,SW,16.1,21.9,N/A,,Clear,220,2013-01-15 18:53:00
1:13 PM,33.8,15.8,48,30.13,10.0,SSW,18.4,-,N/A,,Clear,210,2013-01-15 19:13:00
1:33 PM,33.8,15.8,48,30.12,10.0,SSW,18.4,24.2,N/A,,Clear,210,2013-01-15 19:33:00
1:53 PM,33.8,15.8,48,30.11,10.0,SSW,18.4,23.0,N/A,,Clear,210,2013-01-15 19:53:00
2:13 PM,33.8,15.8,48,30.10,10.0,SSW,20.7,-,N/A,,Clear,210,2013-01-15 20:13:00
2:34 PM,33.8,15.8,48,30.09,10.0,SSW,20.7,25.3,N/A,,Clear,210,2013-01-15 20:34:00
2:53 PM,33.8,15.8,48,30.09,10.0,SSW,16.1,-,N/A,,Clear,210,2013-01-15 20:53:00
3:13 PM,33.8,15.8,48,30.08,10.0,SSW,18.4,23.0,N/A,,Clear,210,2013-01-15 21:13:00
3:34 PM,33.8,17.6,52,30.08,10.0,SSW,15.0,-,N/A,,Clear,200,2013-01-15 21:34:00
3:53 PM,33.8,15.8,48,30.07,10.0,SSW,18.4,-,N/A,,Clear,210,2013-01-15 21:53:00
4:53 PM,30.2,15.8,55,30.06,10.0,SSW,13.8,-,N/A,,Clear,200,2013-01-15 22:53:00
5:14 PM,30.2,15.8,55,30.06,10.0,SSW,12.7,-,N/A,,Clear,200,2013-01-15 23:14:00
5:34 PM,28.4,15.8,59,30.06,10.0,South,11.5,-,N/A,,Clear,190,2013-01-15 23:34:00
5:53 PM,28.4,15.8,59,30.06,10.0,South,10.4,-,N/A,,Clear,180,2013-01-15 23:53:00
6:13 PM,28.4,15.8,59,30.05,10.0,South,12.7,-,N/A,,Clear,180,2013-01-16 00:13:00
6:33 PM,28.4,15.8,59,30.04,10.0,South,11.5,-,N/A,,Clear,180,2013-01-16 00:33:00
6:54 PM,28.4,15.8,59,30.03,10.0,South,11.5,-,N/A,,Clear,180,2013-01-16 00:54:00
7:13 PM,28.4,15.8,59,30.03,10.0,South,12.7,17.3,N/A,,Clear,180,2013-01-16 01:13:00
7:34 PM,28.4,15.8,59,30.01,10.0,South,13.8,-,N/A,,Clear,180,2013-01-16 01:34:00
7:53 PM,26.6,15.8,64,30.00,10.0,South,13.8,-,N/A,,Clear,180,2013-01-16 01:53:00
8:13 PM,26.6,15.8,64,29.99,10.0,South,13.8,-,N/A,,Clear,190,2013-01-16 02:13:00
8:33 PM,26.6,15.8,64,29.98,10.0,South,16.1,19.6,N/A,,Clear,190,2013-01-16 02:33:00
8:53 PM,26.6,14.0,59,29.96,10.0,Calm,Calm,-,N/A,,Clear,0,2013-01-16 02:53:00
9:14 PM,26.6,12.2,55,29.95,10.0,South,17.3,23.0,N/A,,Clear,190,2013-01-16 03:14:00
9:33 PM,26.6,12.2,55,29.94,10.0,South,19.6,23.0,N/A,,Clear,190,2013-01-16 03:33:00
9:53 PM,26.6,12.2,55,29.92,10.0,South,18.4,27.6,N/A,,Clear,190,2013-01-16 03:53:00
10:13 PM,26.6,12.2,55,29.91,10.0,South,18.4,26.5,N/A,,Clear,180,2013-01-16 04:13:00
10:33 PM,26.6,12.2,55,29.90,10.0,South,17.3,-,N/A,,Clear,190,2013-01-16 04:33:00
10:54 PM,26.6,12.2,55,29.89,10.0,SSW,20.7,-,N/A,,Clear,200,2013-01-16 04:54:00
11:14 PM,26.6,12.2,55,29.89,10.0,SSW,20.7,26.5,N/A,,Clear,200,2013-01-16 05:14:00
11:33 PM,26.6,12.2,55,29.87,10.0,SSW,20.7,27.6,N/A,,Clear,200,2013-01-16 05:33:00